Olathe New Century, KS

6:57 PM CDT on June 22, 2018 (GMT -0500)
New Century Aircenter

Weather History for KIXD - December, 2015

Change the Weather History Date:

Sunday, December 20, 2015

  Actual Average Record
Temperature  
Mean Temperature 50 °F -  
Max Temperature 55 °F 37 °F 55 °F (2003)
Min Temperature 46 °F 19 °F 3 °F (1996)
Degree Days  
Heating Degree Days 14    
Moisture  
Dew Point 42 °F    
Average Humidity 71    
Maximum Humidity 84    
Minimum Humidity 56    
Precipitation  
Precipitation 0.00 in - - ()
Sea Level Pressure  
Sea Level Pressure 29.86 in    
Wind  
Wind Speed 22 mph (South)    
Max Wind Speed 29 mph    
Max Gust Speed 41 mph    
Visibility 10 miles    
Events      
Averages and records for this station are not official NWS values.
T = Trace of Precipitation, MM = Missing Value Source: NWS Daily Summary

Daily Weather History Graph

Daily Weather History Graph

Search for Another Location

Airport or City:

Astronomy

Dec. 20, 2015 Rise Set
Actual Time 7:33 AM CST 5:00 PM CST
Civil Twilight 7:03 AM CST 5:30 PM CST
Nautical Twilight 6:30 AM CST 6:03 PM CST
Astronomical Twilight 5:57 AM CST 6:36 PM CST
Moon 1:43 PM CST (12/20) 2:02 AM CST (12/20)
Length of Visible Light 10h 26m
Length of Day
9h 26m
Waxing Gibbous, 73% of the Moon is Illuminated
Dec 20
Waxing Gibbous
Dec 25
Full
Jan 1
Last Quarter
Jan 9
New
Jan 16
First Quarter

Hourly Weather History & Observations

Time (CST) Temp. Windchill Dew Point Humidity Pressure Visibility Wind Dir Wind Speed Gust Speed Precip Events Conditions
12:53 AM 46.0 °F 38.3 °F 32.0 °F 58% 30.09 in 10.0 mi South 20.7 mph 33.4 mph N/A   Clear
1:53 AM 46.9 °F - 32.0 °F 56% 30.06 in 10.0 mi South 25.3 mph 32.2 mph N/A   Clear
2:53 AM 46.9 °F - 33.1 °F 59% 30.04 in 10.0 mi South 21.9 mph 31.1 mph N/A   Clear
3:53 AM 46.9 °F - 32.0 °F 56% 30.03 in 10.0 mi South 20.7 mph 29.9 mph N/A   Clear
4:53 AM 46.9 °F - 33.1 °F 59% 30.00 in 10.0 mi South 21.9 mph 29.9 mph N/A   Clear
5:53 AM 48.0 °F - 34.0 °F 58% 29.97 in 10.0 mi South 21.9 mph 27.6 mph N/A   Clear
6:53 AM 46.9 °F - 35.1 °F 63% 29.98 in 10.0 mi South 16.1 mph 28.8 mph N/A   Clear
7:53 AM 46.9 °F - 36.0 °F 66% 29.97 in 10.0 mi South 17.3 mph - N/A   Clear
8:53 AM 50.0 °F - 37.9 °F 63% 29.94 in 10.0 mi South 20.7 mph 31.1 mph N/A   Clear
9:53 AM 51.1 °F - 41.0 °F 68% 29.93 in 10.0 mi South 28.8 mph 34.5 mph N/A   Clear
10:53 AM 52.0 °F - 41.0 °F 66% 29.92 in 10.0 mi South 26.5 mph 32.2 mph N/A   Partly Cloudy
11:53 AM 53.1 °F - 42.1 °F 66% 29.87 in 10.0 mi South 21.9 mph 40.3 mph N/A   Mostly Cloudy
12:53 PM 54.0 °F - 44.1 °F 69% 29.82 in 10.0 mi South 23.0 mph 33.4 mph N/A   Overcast
1:53 PM 54.0 °F - 45.0 °F 72% 29.78 in 10.0 mi South 25.3 mph 39.1 mph N/A   Overcast
2:53 PM 54.0 °F - 46.0 °F 75% 29.76 in 10.0 mi South 27.6 mph 40.3 mph N/A   Overcast
3:53 PM 54.0 °F - 46.9 °F 77% 29.76 in 10.0 mi South 27.6 mph 41.4 mph N/A   Overcast
4:53 PM 53.1 °F - 46.9 °F 80% 29.76 in 10.0 mi South 16.1 mph 26.5 mph N/A   Overcast
5:53 PM 54.0 °F - 48.0 °F 80% 29.76 in 10.0 mi South 23.0 mph 32.2 mph 0.00 in   Overcast
6:53 PM 54.0 °F - 48.9 °F 83% 29.75 in 10.0 mi South 18.4 mph 32.2 mph 0.00 in   Overcast
7:53 PM 55.0 °F - 50.0 °F 83% 29.76 in 10.0 mi South 21.9 mph 33.4 mph N/A   Overcast
8:53 PM 55.0 °F - 50.0 °F 83% 29.75 in 10.0 mi SSW 17.3 mph - 0.00 in   Overcast
9:53 PM 55.0 °F - 50.0 °F 83% 29.74 in 10.0 mi South 17.3 mph 23.0 mph N/A   Overcast
10:32 PM 55.9 °F - 51.1 °F 84% 29.74 in 10.0 mi SSW 18.4 mph - N/A   Overcast
10:53 PM 55.9 °F - 51.1 °F 84% 29.72 in 10.0 mi South 17.3 mph - N/A   Overcast
11:53 PM 55.9 °F - 51.1 °F 84% 29.69 in 10.0 mi South 12.7 mph - N/A   Overcast